GW3498 Weather Reports


Display with metric or nautical units.
time (UTC)temp
F
wind
direction
speed
MPH
gust
MPH
rain 1hr
in
rain 24hr
in
rain mn
in
humidity
%
barometer
mb
20260508065022 64 210 0.0 1.0 0.00 0.00 0.00 81 1010.3
20260508064016 63 187 0.0 1.0 0.00 0.00 0.00 81 1010.3
20260508063031 62 212 0.0 1.0 0.00 0.00 0.00 81 1010.3
20260508062026 62 185 0.0 1.0 0.00 0.00 0.00 83 1010.2
20260508061101 62 0.0 0.0 0.00 0.00 0.00 83 1010.3
20260508060036 62 0.0 0.0 0.00 0.00 0.00 83 1010.3
20260508055030 61 185 0.0 1.0 0.00 0.00 0.00 82 1010.2
20260508054045 61 10 0.0 3.0 0.00 0.00 0.00 81 1010.1
20260508053019 61 7 1.0 3.0 0.00 0.00 0.00 81 1010.0
20260508052054 60 7 0.0 2.0 0.00 0.00 0.00 81 1009.9
20260508051027 60 3 0.0 2.0 0.00 0.00 0.00 82 1009.9
20260508050022 59 18 0.0 1.0 0.00 0.00 0.00 83 1009.7
20260508045036 58 16 1.0 2.0 0.00 0.00 0.00 87 1009.6
20260508044031 58 210 0.0 1.0 0.00 0.00 0.00 86 1009.4
20260508043025 58 357 0.0 1.0 0.00 0.00 0.00 86 1009.2
20260508042020 57 45 0.0 2.0 0.00 0.00 0.00 86 1009.2
20260508041056 57 42 1.0 2.0 0.00 0.00 0.00 88 1009.0
20260508040029 57 0.0 0.0 0.00 0.00 0.00 87 1008.9
20260508035023 57 212 0.0 1.0 0.00 0.00 0.00 86 1008.9
20260508034038 58 188 0.0 1.0 0.00 0.00 0.00 85 1008.6
20260508033033 58 0.0 0.0 0.00 0.00 0.00 87 1008.7
20260508032028 57 0.0 0.0 0.00 0.00 0.00 87 1008.7
20260508031021 58 188 0.0 1.0 0.00 0.00 0.00 87 1008.7
20260508030016 58 0.0 0.0 0.00 0.01 0.00 85 1008.7
20260508025031 59 170 0.0 1.0 0.00 0.01 0.00 83 1008.8
20260508024025 59 0.0 0.0 0.00 0.04 0.00 82 1008.8
20260508023042 59 1 0.0 1.0 0.00 0.05 0.00 82 1008.8
20260508022034 60 0.0 0.0 0.00 0.06 0.00 80 1008.9
20260508021029 60 0.0 0.0 0.00 0.07 0.00 79 1008.9
20260508020023 60 17 0.0 1.0 0.00 0.07 0.00 79 1008.9
20260508015039 59 42 0.0 1.0 0.00 0.07 0.00 81 1009.0
20260508014033 59 0.0 0.0 0.00 0.08 0.00 81 1009.1
20260508013027 59 0.0 0.0 0.00 0.09 0.00 80 1009.1
20260508012024 59 189 0.0 1.0 0.00 0.12 0.00 79 1009.1
20260508011016 60 0.0 0.0 0.00 0.14 0.00 77 1009.0
20260508010032 61 35 0.0 1.0 0.00 0.15 0.00 76 1009.2
20260508005026 60 41 0.0 1.0 0.00 0.15 0.00 77 1009.2
20260508004040 60 0.0 0.0 0.00 0.15 0.00 79 1009.2
20260508003034 61 30 0.0 1.0 0.00 0.16 0.00 75 1009.3
20260508002030 61 20 0.0 1.0 0.00 0.17 0.00 77 1009.6
20260508001023 60 41 0.0 1.0 0.00 0.17 0.00 77 1009.7
20260508000020 60 48 0.0 1.0 0.00 0.18 0.00 77 1009.7
20260507235052 61 28 0.0 1.0 0.00 0.18 0.00 76 1009.8
20260507234027 61 0.0 0.0 0.00 0.18 0.00 75 1009.9
20260507233023 61 18 0.0 1.0 0.00 0.18 0.00 75 1009.9
20260507232016 60 6 0.0 1.0 0.00 0.18 0.00 77 1010.1
20260507231031 60 0.0 0.0 0.00 0.18 0.00 78 1010.1
20260507230029 61 0.0 0.0 0.00 0.18 0.00 77 1010.4
20260507225040 60 41 0.0 1.0 0.00 0.18 0.00 77 1010.5
20260507224035 61 0.0 0.0 0.00 0.18 0.00 75 1010.5
20260507223030 60 27 0.0 1.0 0.00 0.18 0.00 77 1010.5
20260507222023 60 0.0 0.0 0.00 0.18 0.00 78 1010.7
20260507221016 61 0.0 0.0 0.00 0.18 0.00 78 1010.6
20260507220031 60 30 0.0 1.0 0.00 0.18 0.18 77 1010.6
20260507215026 61 0.0 0.0 0.00 0.18 0.18 75 1010.8
20260507214020 60 0.0 0.0 0.00 0.18 0.18 76 1010.8
20260507213016 60 0.0 0.0 0.00 0.18 0.18 76 1010.9
20260507212032 60 39 0.0 1.0 0.00 0.18 0.18 74 1010.9
20260507211108 60 29 0.0 1.0 0.00 0.18 0.18 76 1010.8
20260507210022 60 0.0 0.0 0.00 0.18 0.18 75 1011.0
20260507205017 61 0.0 0.0 0.00 0.18 0.18 75 1011.0
20260507204032 61 25 0.0 1.0 0.00 0.18 0.18 75 1011.1
20260507203028 61 0.0 0.0 0.00 0.18 0.18 73 1011.0
20260507202023 62 162 0.0 1.0 0.00 0.18 0.18 69 1011.1
20260507201039 63 0.0 0.0 0.00 0.18 0.18 65 1011.2
20260507200034 63 258 0.0 1.0 0.00 0.18 0.18 63 1011.2
20260507195030 64 16 1.0 2.0 0.00 0.18 0.18 61 1011.3
20260507194024 63 351 1.0 2.0 0.00 0.18 0.18 63 1011.2
20260507193019 64 347 1.0 2.0 0.00 0.18 0.18 61 1011.1
20260507192033 64 353 2.0 3.0 0.00 0.18 0.18 63 1011.1
20260507191109 64 359 1.0 3.0 0.00 0.18 0.18 63 1011.0
20260507190024 65 349 1.0 3.0 0.00 0.18 0.18 63 1011.1
20260507185039 65 2 2.0 4.0 0.00 0.18 0.18 62 1011.1
20260507184033 65 9 2.0 3.0 0.00 0.18 0.18 63 1011.1
20260507183027 65 9 2.0 3.0 0.00 0.18 0.18 63 1011.0
20260507182022 65 354 2.0 4.0 0.00 0.18 0.18 64 1011.0
20260507181016 66 19 2.0 3.0 0.00 0.18 0.18 63 1011.0
20260507180031 66 16 2.0 6.0 0.00 0.18 0.18 61 1011.1
20260507175027 67 22 2.0 6.0 0.00 0.18 0.18 60 1011.2
20260507174021 67 17 0.0 2.0 0.00 0.20 0.18 61 1011.2
20260507173016 67 6 1.0 2.0 0.00 0.20 0.18 59 1011.2
20260507172032 68 7 1.0 3.0 0.00 0.20 0.18 58 1011.1
20260507171026 68 3 1.0 3.0 0.00 0.20 0.18 58 1011.1
20260507170020 69 356 1.0 3.0 0.00 0.20 0.18 59 1011.1
20260507165036 69 353 1.0 3.0 0.00 0.20 0.18 59 1011.2
20260507164029 69 20 1.0 3.0 0.00 0.20 0.18 60 1011.1
20260507163024 69 182 1.0 3.0 0.00 0.20 0.18 61 1011.0
20260507162039 70 333 1.0 2.0 0.00 0.20 0.18 61 1011.0
20260507161033 70 346 2.0 3.0 0.00 0.20 0.18 60 1011.0
20260507160027 70 10 1.0 6.0 0.00 0.20 0.18 60 1011.0
20260507155123 71 331 1.0 2.0 0.00 0.20 0.18 61 1011.0
20260507154017 70 358 1.0 3.0 0.00 0.20 0.18 62 1011.1
20260507153032 70 8 1.0 4.0 0.00 0.20 0.18 61 1011.0
20260507152028 70 322 1.0 3.0 0.00 0.20 0.18 62 1011.1
20260507151021 70 356 1.0 3.0 0.00 0.20 0.18 62 1011.1
20260507150036 71 303 1.0 2.0 0.00 0.20 0.18 63 1011.1
20260507145031 72 7 1.0 3.0 0.00 0.20 0.18 60 1011.1
20260507144026 73 319 2.0 4.0 0.00 0.20 0.18 60 1011.2
20260507143020 73 293 1.0 4.0 0.00 0.20 0.18 61 1011.2
20260507142055 72 262 1.0 2.0 0.00 0.20 0.18 63 1011.6
20260507141029 72 232 0.0 2.0 0.00 0.20 0.18 66 1011.6
20260507140024 71 213 2.0 4.0 0.00 0.20 0.18 66 1011.9
20260507135018 70 236 1.0 3.0 0.00 0.20 0.18 66 1012.1
20260507134033 69 226 2.0 4.0 0.00 0.20 0.18 67 1012.2
20260507133029 71 243 1.0 3.0 0.00 0.20 0.18 62 1012.2
20260507132024 70 204 1.0 4.0 0.00 0.20 0.18 57 1012.2
20260507131019 72 189 2.0 4.0 0.00 0.20 0.18 58 1012.3
20260507130033 71 209 2.0 4.0 0.00 0.20 0.18 59 1012.3
20260507125028 71 197 2.0 4.0 0.00 0.20 0.18 56 1012.3
20260507124103 72 182 1.0 3.0 0.00 0.20 0.18 55 1012.5
20260507123018 72 193 1.0 2.0 0.00 0.20 0.18 56 1012.7
20260507122032 73 213 1.0 3.0 0.00 0.20 0.18 57 1012.7
20260507121048 73 271 1.0 2.0 0.00 0.20 0.18 64 1012.6
20260507120025 70 303 1.0 1.0 0.00 0.20 0.18 67 1012.7
20260507115035 70 237 1.0 3.0 0.00 0.20 0.18 69 1012.7
20260507114131 70 16 1.0 4.0 0.00 0.20 0.18 69 1012.8
20260507113023 70 212 1.0 2.0 0.00 0.20 0.18 71 1012.8
20260507112018 68 258 1.0 3.0 0.00 0.20 0.18 72 1012.8
20260507111034 69 268 1.0 3.0 0.00 0.20 0.18 72 1013.0
20260507110027 68 1 2.0 6.0 0.00 0.20 0.18 73 1013.0
20260507105022 69 259 0.0 1.0 0.00 0.20 0.18 70 1013.1
20260507104037 68 338 1.0 3.0 0.00 0.20 0.18 72 1013.2
20260507103030 68 320 1.0 2.0 0.00 0.20 0.18 73 1013.3
20260507102026 68 234 1.0 4.0 0.00 0.20 0.18 72 1013.4
20260507101019 68 226 1.0 2.0 0.00 0.20 0.18 71 1013.4
20260507100033 68 226 1.0 4.0 0.00 0.20 0.18 72 1013.4
20260507095027 67 198 1.0 2.0 0.00 0.20 0.18 73 1013.3
20260507094022 67 203 1.0 2.0 0.00 0.20 0.18 73 1013.4
20260507093016 66 170 1.0 3.0 0.00 0.20 0.18 74 1013.4
20260507092032 66 190 1.0 3.0 0.00 0.21 0.18 74 1013.2
20260507091027 65 221 1.0 2.0 0.00 0.21 0.18 78 1013.2
20260507090020 63 194 1.0 2.0 0.00 0.21 0.18 79 1013.2
20260507085057 63 226 1.0 2.0 0.00 0.21 0.18 80 1013.2
20260507084030 63 182 1.0 2.0 0.00 0.21 0.18 79 1013.3
20260507083045 61 217 0.0 2.0 0.00 0.21 0.18 83 1013.4
20260507082018 60 262 1.0 2.0 0.00 0.21 0.18 85 1013.5
20260507081033 60 238 1.0 6.0 0.00 0.21 0.18 86 1013.6
20260507080027 60 319 0.0 1.0 0.00 0.21 0.18 86 1013.6
20260507075044 60 24 0.0 2.0 0.00 0.21 0.18 89 1013.5
20260507074017 57 192 0.0 1.0 0.00 0.21 0.18 95 1013.6
20260507073031 56 24 0.0 1.0 0.00 0.21 0.18 98 1013.6
20260507072027 55 355 1.0 2.0 0.00 0.21 0.18 99 1013.8
20260507071021 55 8 1.0 3.0 0.00 0.21 0.18 99 1013.8
20260507070035 55 317 0.0 1.0 0.00 0.21 0.18 99 1013.4